User: anonymous   Login
Location: Arborea
(39.7744°N, 8.5819°E)
Time: 00:26:59
(UTC+00:00)
Language:

ISS - Orbit

View from above orbital plane
View from above orbital plane
View from above satellite
View from above satellite

Ground track
Ground track

The orbit data is extracted from the following two-line orbital elements,

1 25544U 98067A   25136.43719550  .00008291  00000-0  15546-3 0  9995
2 25544  51.6361 104.3544 0002568 114.4950  30.1730 15.49558014510237
Epoch (UTC): 16 May 2025 10:29:33
Eccentricity: 0.0002568
inclination: 51.6361°
perigee height: 416 km
apogee height: 420 km
right ascension of ascending node: 104.3544°
argument of perigee: 114.4950°
revolutions per day: 15.49558014
mean anomaly at epoch: 30.1730°
orbit number at epoch: 51023

The dashed part of the orbit path shows where the satellite is in the earth's shadow,  

DLR